Carrollton, GA

7:31 PM EST on November 18, 2019 (GMT -0500)
West Georgia Regional-Gray

Weather History for KCTJ - September, 2019

Change the Weather History Date:

Monday, September 9, 2019

  Actual Average Record
Temperature  
Mean Temperature 78 °F -  
Max Temperature 95 °F 85 °F 95 °F (1990)
Min Temperature 62 °F 61 °F 47 °F (1984)
Cooling Degree Days 14    
Growing Degree Days 28 (Base 50)    
Moisture  
Dew Point 63 °F    
Average Humidity 65    
Maximum Humidity 91    
Minimum Humidity 32    
Precipitation  
Precipitation 0.00 in - - ()
Sea Level Pressure  
Sea Level Pressure 30.16 in    
Wind  
Wind Speed 0 mph (South)    
Max Wind Speed 6 mph    
Max Gust Speed -    
Visibility 10 miles    
Events      
Averages and records for this station are not official NWS values.
T = Trace of Precipitation, MM = Missing Value Source: NWS Daily Summary

Daily Weather History Graph

Daily Weather History Graph

Search for Another Location

Airport or City:

Astronomy

Sep. 09, 2019 Rise Set
Actual Time 7:19 AM EDT 7:55 PM EDT
Civil Twilight 6:54 AM EDT 8:20 PM EDT
Nautical Twilight 6:25 AM EDT 8:50 PM EDT
Astronomical Twilight 5:54 AM EDT 9:20 PM EDT
Moon 5:37 PM EDT (9/9) 3:04 AM EDT (9/9)
Length of Visible Light 13h 26m
Length of Day
12h 35m
Waxing Gibbous, 83% of the Moon is Illuminated
Sep 9
Waxing Gibbous
Sep 14
Full
Sep 21
Last Quarter
Sep 28
New
Oct 5
First Quarter

Hourly Weather History & Observations

Time (EDT) Temp. Heat Index Dew Point Humidity Pressure Visibility Wind Dir Wind Speed Gust Speed Precip Events Conditions
12:15 AM 67.8 °F - 60.8 °F 78% 30.11 in 10.0 mi Calm Calm - N/A   Clear
12:35 AM 67.3 °F - 60.6 °F 79% 30.11 in 10.0 mi Calm Calm - N/A   Clear
12:55 AM 67.3 °F - 61.5 °F 82% 30.11 in 10.0 mi Calm Calm - N/A   Clear
1:15 AM 66.9 °F - 61.3 °F 82% 30.11 in 10.0 mi Calm Calm - N/A   Clear
1:35 AM 66.7 °F - 60.4 °F 80% 30.11 in 10.0 mi Calm Calm - N/A   Clear
2:15 AM 64.9 °F - 61.2 °F 88% 30.12 in 10.0 mi Calm Calm - N/A   Clear
2:35 AM 64.6 °F - 60.8 °F 88% 30.12 in 10.0 mi Calm Calm - N/A   Clear
2:55 AM 64.6 °F - 60.8 °F 88% 30.12 in 10.0 mi Calm Calm - N/A   Clear
3:15 AM 64.0 °F - 60.3 °F 87% 30.11 in 10.0 mi Calm Calm - N/A   Clear
3:35 AM 64.2 °F - 59.7 °F 85% 30.12 in 10.0 mi Calm Calm - N/A   Clear
3:55 AM 64.2 °F - 59.5 °F 85% 30.12 in 10.0 mi Calm Calm - N/A   Clear
4:15 AM 64.6 °F - 59.2 °F 83% 30.11 in 10.0 mi Calm Calm - N/A   Clear
4:35 AM 64.0 °F - 59.2 °F 84% 30.12 in 10.0 mi Calm Calm - N/A   Clear
4:55 AM 63.3 °F - 59.4 °F 87% 30.12 in 10.0 mi Calm Calm - N/A   Clear
5:15 AM 63.3 °F - 59.4 °F 87% 30.13 in 10.0 mi Calm Calm - N/A   Clear
5:35 AM 63.7 °F - 58.5 °F 83% 30.13 in 10.0 mi Calm Calm - N/A   Clear
5:55 AM 63.1 °F - 59.0 °F 86% 30.13 in 10.0 mi Calm Calm - N/A   Clear
6:15 AM 63.7 °F - 59.4 °F 86% 30.14 in 10.0 mi Calm Calm - N/A   Clear
6:35 AM 63.5 °F - 59.7 °F 87% 30.15 in 10.0 mi Calm Calm - N/A   Clear
6:55 AM 63.5 °F - 59.7 °F 87% 30.16 in 10.0 mi Calm Calm - N/A   Clear
7:15 AM 63.5 °F - 59.7 °F 87% 30.16 in 10.0 mi Calm Calm - N/A   Clear
7:35 AM 62.4 °F - 59.7 °F 91% 30.17 in 10.0 mi Calm Calm - N/A   Clear
7:55 AM 63.7 °F - 60.1 °F 88% 30.19 in 10.0 mi Calm Calm - N/A   Clear
8:15 AM 66.6 °F - 60.8 °F 82% 30.20 in 10.0 mi Calm Calm - N/A   Clear
8:35 AM 69.1 °F - 61.5 °F 77% 30.20 in 10.0 mi Calm Calm - N/A   Clear
8:55 AM 71.6 °F - 62.8 °F 74% 30.20 in 10.0 mi Calm Calm - N/A   Clear
9:15 AM 75.2 °F - 62.4 °F 64% 30.20 in 10.0 mi Calm Calm - N/A   Clear
9:35 AM 77.0 °F - 63.0 °F 62% 30.21 in 10.0 mi Calm Calm - N/A   Clear
9:55 AM 79.3 °F - 63.9 °F 59% 30.21 in 10.0 mi Calm Calm - N/A   Clear
10:15 AM 81.5 °F 82.9 °F 63.9 °F 55% 30.21 in 10.0 mi Calm Calm - N/A   Clear
10:35 AM 83.7 °F 84.9 °F 63.5 °F 51% 30.22 in 10.0 mi Calm Calm - N/A   Clear
10:55 AM 85.3 °F 86.1 °F 63.0 °F 47% 30.22 in 10.0 mi Calm Calm - N/A   Clear
11:15 AM 86.5 °F 87.0 °F 62.1 °F 44% 30.21 in 10.0 mi SE 3.5 mph - N/A   Clear
11:35 AM 87.8 °F 87.6 °F 60.8 °F 40% 30.21 in 10.0 mi Calm Calm - N/A   Clear
11:55 AM 88.5 °F 88.9 °F 61.9 °F 41% 30.21 in 10.0 mi Calm Calm - N/A   Clear
12:15 PM 89.1 °F 89.6 °F 62.6 °F 41% 30.21 in 10.0 mi Calm Calm - N/A   Clear
12:55 PM 90.5 °F 91.8 °F 64.0 °F 41% 30.20 in 10.0 mi Calm Calm - N/A   Clear
1:15 PM 91.0 °F 92.6 °F 64.2 °F 41% 30.20 in 10.0 mi Calm Calm - N/A   Clear
1:35 PM 91.4 °F 92.8 °F 64.2 °F 40% 30.20 in 10.0 mi Calm Calm - N/A   Clear
1:55 PM 91.8 °F 93.0 °F 63.7 °F 39% 30.19 in 10.0 mi Calm Calm - N/A   Clear
2:15 PM 92.3 °F 93.8 °F 63.9 °F 39% 30.17 in 10.0 mi South 3.5 mph - N/A   Clear
2:35 PM 92.3 °F 94.3 °F 64.6 °F 40% 30.16 in 10.0 mi SSE 4.6 mph - N/A   Clear
3:15 PM 93.4 °F 94.3 °F 62.8 °F 36% 30.15 in 10.0 mi SW 5.8 mph - N/A   Clear
3:35 PM 93.6 °F 94.2 °F 61.9 °F 35% 30.14 in 10.0 mi South 3.5 mph - N/A   Clear
4:15 PM 94.8 °F 94.9 °F 60.8 °F 32% 30.13 in 10.0 mi SSW 4.6 mph - N/A   Clear
4:35 PM 94.8 °F 95.3 °F 61.2 °F 33% 30.13 in 10.0 mi SW 3.5 mph - N/A   Clear
4:55 PM 94.8 °F 95.3 °F 61.2 °F 33% 30.13 in 10.0 mi Calm Calm - N/A   Clear
5:15 PM 95.0 °F 95.6 °F 62.1 °F 33% 30.14 in 10.0 mi Calm Calm - N/A   Clear
5:35 PM 94.5 °F 95.2 °F 61.9 °F 34% 30.14 in 10.0 mi South 3.5 mph - N/A   Clear
5:55 PM 94.3 °F 95.3 °F 62.4 °F 35% 30.15 in 10.0 mi Calm Calm - N/A   Scattered Clouds
6:15 PM 93.9 °F 94.8 °F 62.8 °F 35% 30.14 in 10.0 mi Calm Calm - N/A   Clear
6:35 PM 92.5 °F 94.1 °F 63.9 °F 39% 30.13 in 10.0 mi Calm Calm - N/A   Clear
6:55 PM 90.7 °F 92.8 °F 65.7 °F 43% 30.14 in 10.0 mi Calm Calm - N/A   Clear
7:15 PM 87.1 °F 90.2 °F 67.6 °F 52% 30.14 in 10.0 mi Calm Calm - N/A   Clear
7:35 PM 84.7 °F 88.2 °F 68.7 °F 58% 30.14 in 10.0 mi Calm Calm - N/A   Clear
7:55 PM 83.3 °F 86.9 °F 68.9 °F 62% 30.15 in 10.0 mi Calm Calm - N/A   Scattered Clouds
8:15 PM 81.7 °F 84.7 °F 68.4 °F 64% 30.15 in 10.0 mi Calm Calm - N/A   Clear
8:35 PM 78.4 °F - 69.8 °F 75% 30.15 in 10.0 mi Calm Calm - N/A   Clear
8:55 PM 77.4 °F - 68.5 °F 74% 30.16 in 10.0 mi Calm Calm - N/A   Clear
9:15 PM 78.1 °F - 68.4 °F 72% 30.17 in 10.0 mi Calm Calm - N/A   Clear
9:35 PM 79.5 °F - 68.4 °F 69% 30.17 in 10.0 mi Calm Calm - N/A   Clear
9:55 PM 79.9 °F - 68.9 °F 69% 30.18 in 10.0 mi Calm Calm - N/A   Clear
10:15 PM 77.2 °F - 68.9 °F 76% 30.18 in 10.0 mi Calm Calm - N/A   Clear
10:35 PM 75.7 °F - 69.1 °F 80% 30.19 in 10.0 mi Calm Calm - N/A   Clear
10:55 PM 75.0 °F - 69.1 °F 82% 30.20 in 10.0 mi Calm Calm - N/A   Clear
11:15 PM 74.3 °F - 69.3 °F 84% 30.20 in 10.0 mi Calm Calm - N/A   Clear
11:35 PM 73.8 °F - 69.3 °F 86% 30.20 in 10.0 mi Calm Calm - N/A   Clear